Location: Amsterdam
(30.7274°N, 84.4357°W)
Time: 14:51:25
(UTC+00:00)

Vanguard 1 Rocket - Pass Details

Date: 24 February 2026
Orbit: 653 x 4214 km, 34.3° (Epoch: 6 March)

Event Time Altitude Azimuth Distance (km) Brightness Sun altitude
Rises 00:51:46 0° 285° (WNW) 6,458 13.2 -17.9°
Reaches altitude 10° 00:55:53 10° 278° (W) 5,865 12.7 -18.7°
Maximum altitude 01:13:26 39° 218° (SW) 5,089 11.4 -22.5°
Drops below altitude 10° 01:35:58 10° 159° (SSE) 7,284 11.7 -27.3°
Sets 01:42:08 0° 152° (SSE) 8,085 11.9 -28.7°
